Location: Rometta
(44.2000°N, 10.0500°E)
Time: 12:42:41
(UTC+00:00)

Cosmos 1680 Rocket - Pass Details

Date: 20 January 2021
Orbit: 761 x 780 km, 74.1° (Epoch: 07 March)

Event Time Altitude Azimuth Distance (km) Brightness Sun altitude
Rises 18:17:39 0° 340° (NNW) 3,248 6.9 -22.0°
Reaches altitude 10° 18:20:03 10° 343° (NNW) 2,315 6.1 -22.4°
Maximum altitude 18:25:18 73° 68° (ENE) 803 3.3 -23.3°
Enters shadow 18:26:40 49° 137° (SE) 981 3.7 -23.6°
